This is the latest recevied weather packets stored in our database for station/object IZ3LSV-13. If no packets are shown the sender has not sent any weather packets the latest 10 day(s).
| Time | Temp. | Humidity | Pressure | Rain* | Wind** | Luminosity | Snow |
|---|---|---|---|---|---|---|---|
| 1777881127 | 24.44° C | - | 1113.4 hPa | 0 mm | - | - | - |
| 1777880821 | 23.89° C | - | 1113.4 hPa | 0 mm | - | - | - |
| 1777880516 | 23.89° C | - | 1113.3 hPa | 0 mm | - | - | - |
| 1777880210 | 23.89° C | - | 1113.3 hPa | 0 mm | - | - | - |
| 1777879905 | 23.89° C | - | 1113.2 hPa | 0 mm | - | - | - |
| 1777879599 | 23.89° C | - | 1113.3 hPa | 0 mm | - | - | - |
| 1777879294 | 23.33° C | - | 1113.3 hPa | 0 mm | - | - | - |
| 1777878989 | 23.33° C | - | 1113.2 hPa | 0 mm | - | - | - |
| 1777878683 | 23.33° C | - | 1113.2 hPa | 0 mm | - | - | - |
| 1777878378 | 23.33° C | - | 1113.2 hPa | 0 mm | - | - | - |
| 1777878072 | 23.33° C | - | 1113.1 hPa | 0 mm | - | - | - |
| 1777877767 | 23.33° C | - | 1113.2 hPa | 0 mm | - | - | - |
| 1777877156 | 23.89° C | - | 1113.1 hPa | 0 mm | - | - | - |
| 1777876850 | 23.89° C | - | 1113.1 hPa | 0 mm | - | - | - |
| 1777876544 | 24.44° C | - | 1113 hPa | 0 mm | - | - | - |
| 1777876239 | 25° C | - | 1113 hPa | 0 mm | - | - | - |
| 1777875933 | 25° C | - | 1113.1 hPa | 0 mm | - | - | - |
| 1777875628 | 24.44° C | - | 1112.9 hPa | 0 mm | - | - | - |
| 1777875323 | 25° C | - | 1113.1 hPa | 0 mm | - | - | - |
| 1777875017 | 25.56° C | - | 1112.9 hPa | 0 mm | - | - | - |
| 1777874712 | 26.67° C | - | 1113 hPa | 0 mm | - | - | - |
| 1777874406 | 27.78° C | - | 1113 hPa | 0 mm | - | - | - |
| 1777874101 | 28.33° C | - | 1112.9 hPa | 0 mm | - | - | - |
| 1777873796 | 28.89° C | - | 1112.6 hPa | 0 mm | - | - | - |
| 1777873490 | 28.89° C | - | 1112.7 hPa | 0 mm | - | - | - |
* Rain latest hour (hover to see other rain measurements)
** Current wind speed in m/s (hover to see current wind gust speed)